BMCB-35 Weather Reports


time (UTC)temp
F
wind
direction
speed
knots
gust
knots
rain 1hr
in
rain 24hr
in
rain mn
in
humidity
%
barometer
mb
20260510065039 58 50 0.9 1.7 0.00 0.00 0.00 69 1012.2
20260510065033 57 50 0.9 1.7 0.00 0.00 0.00 69 1012.3
20260510064010 57 77 0.9 2.6 0.00 0.00 0.00 69 1012.3
20260510063040 57 77 0.9 2.6 0.00 0.00 0.00 70 1012.3
20260510063035 56 77 0.9 2.6 0.00 0.00 0.00 71 1012.3
20260510062007 56 93 0.9 2.6 0.00 0.00 0.00 71 1012.3
20260510061015 56 79 0.9 4.3 0.00 0.00 0.00 71 1012.3
20260510060036 57 79 0.9 4.3 0.00 0.00 0.00 69 1012.3
20260510060031 57 79 0.9 4.3 0.00 0.00 0.00 68 1012.3
20260510055042 56 96 0.9 2.6 0.00 0.00 0.00 69 1012.3
20260510054035 55 140 0.0 1.7 0.00 0.00 0.00 72 1012.4
20260510053043 54 129 0.0 1.7 0.00 0.00 0.00 75 1012.4
20260510052016 54 172 0.0 0.0 0.00 0.00 0.00 75 1012.4
20260510052014 54 172 0.0 0.0 0.00 0.00 0.00 77 1012.5
20260510051043 54 172 0.0 0.0 0.00 0.00 0.00 77 1012.5
20260510051037 54 172 0.0 0.0 0.00 0.00 0.00 78 1012.6
20260510050037 53 172 0.0 1.7 0.00 0.00 0.00 77 1012.6
20260510045047 53 160 0.0 1.7 0.00 0.00 0.00 77 1012.6
20260510045044 53 160 0.0 1.7 0.00 0.00 0.00 77 1012.7
20260510044017 53 168 0.0 1.7 0.00 0.00 0.00 77 1012.7
20260510043016 53 183 0.9 1.7 0.00 0.00 0.00 79 1012.7
20260510042016 53 189 0.0 1.7 0.00 0.00 0.00 79 1012.6
20260510041035 53 189 0.0 1.7 0.00 0.00 0.00 78 1012.6
20260510040039 53 184 0.9 1.7 0.00 0.00 0.00 78 1012.6
20260510040032 54 184 0.9 1.7 0.00 0.00 0.00 77 1012.7
20260510035046 54 167 0.0 1.7 0.00 0.00 0.00 77 1012.7
20260510035041 53 167 0.0 1.7 0.00 0.00 0.00 77 1012.8
20260510034009 53 186 0.0 0.0 0.00 0.00 0.00 77 1012.8
20260510034007 53 186 0.0 0.0 0.00 0.00 0.00 78 1012.9
20260510033014 53 189 0.9 1.7 0.00 0.00 0.00 78 1012.9
20260510032008 54 168 0.0 0.0 0.00 0.00 0.00 74 1012.9
20260510031038 54 168 0.0 0.0 0.00 0.00 0.00 74 1012.9
20260510031035 54 168 0.0 0.0 0.00 0.00 0.00 76 1013.0
20260510030012 54 180 0.0 1.7 0.00 0.00 0.00 76 1013.0
20260510025005 54 173 0.0 0.9 0.00 0.00 0.00 76 1013.1
20260510024040 54 173 0.0 0.9 0.00 0.00 0.00 78 1013.1
20260510024034 54 173 0.0 0.9 0.00 0.00 0.00 78 1013.3
20260510023007 54 180 0.9 1.7 0.00 0.00 0.00 78 1013.3
20260510022020 54 180 0.9 1.7 0.00 0.00 0.00 78 1013.3
20260510021005 54 165 0.0 0.0 0.00 0.00 0.00 78 1013.3
20260510020012 54 171 0.0 0.0 0.00 0.00 0.00 77 1013.4
20260510015009 54 155 0.0 1.7 0.00 0.00 0.00 77 1013.5
20260510014035 54 155 0.0 1.7 0.00 0.00 0.00 77 1013.5
20260510014031 54 155 0.0 1.7 0.00 0.00 0.00 78 1013.6
20260510013009 54 170 0.9 0.9 0.00 0.00 0.00 79 1013.7
20260510011037 53 170 0.0 1.7 0.00 0.00 0.00 80 1013.7
20260510010037 53 172 0.0 0.9 0.00 0.00 0.00 80 1013.7
20260510010031 54 172 0.0 0.9 0.00 0.00 0.00 79 1013.6
20260510005038 54 174 0.0 0.9 0.00 0.00 0.00 79 1013.6
20260510004012 54 220 0.0 0.0 0.00 0.00 0.00 79 1013.6
20260510003011 55 163 0.0 0.0 0.00 0.00 0.00 77 1013.7
20260510002010 55 148 0.0 0.0 0.00 0.00 0.00 77 1013.7
20260510001037 55 148 0.0 0.0 0.00 0.00 0.00 76 1013.8
20260510001031 55 148 0.0 0.0 0.00 0.00 0.00 77 1013.9
20260510000016 55 166 0.0 0.0 0.00 0.00 0.00 77 1013.9
20260510000014 55 167 0.0 0.0 0.00 0.00 0.00 78 1014.1
20260509235006 55 178 0.0 0.9 0.00 0.00 0.00 78 1014.2
20260509234006 55 174 0.0 0.0 0.00 0.00 0.00 78 1014.2
20260509233006 55 173 0.9 1.7 0.00 0.00 0.00 78 1014.3
20260509232014 55 173 0.0 1.7 0.00 0.00 0.00 78 1014.3
20260509232012 55 173 0.0 1.7 0.00 0.00 0.00 77 1014.3
20260509231016 55 173 0.0 1.7 0.00 0.00 0.00 77 1014.3
20260509231013 55 196 0.9 1.7 0.00 0.00 0.00 76 1014.3
20260509230038 55 196 0.9 1.7 0.00 0.00 0.00 76 1014.3
20260509230032 56 196 0.9 1.7 0.00 0.00 0.00 76 1014.2
20260509225013 56 214 0.0 0.0 0.00 0.00 0.00 76 1014.2
20260509225011 56 214 0.0 0.0 0.00 0.00 0.00 75 1014.2
20260509224028 56 214 0.0 0.0 0.00 0.00 0.00 74 1014.2
20260509223004 57 133 0.0 1.7 0.00 0.00 0.00 74 1014.2
20260509222010 57 190 0.0 0.0 0.00 0.00 0.00 74 1014.3
20260509221011 57 280 0.0 0.9 0.00 0.00 0.00 74 1014.3
20260509221008 57 280 0.0 0.9 0.00 0.00 0.00 74 1014.4
20260509220027 57 280 0.0 0.9 0.00 0.00 0.00 74 1014.4
20260509215046 57 185 0.0 0.9 0.00 0.00 0.00 72 1014.4
20260509214044 57 152 0.0 0.9 0.00 0.00 0.00 72 1014.4
20260509214036 58 152 0.0 0.9 0.00 0.00 0.00 71 1014.4
20260509213025 58 221 0.0 0.0 0.00 0.00 0.00 71 1014.4
20260509211035 58 172 0.0 0.0 0.00 0.00 0.00 70 1014.5
20260509211029 59 172 0.0 0.0 0.00 0.00 0.00 69 1014.5
20260509210004 59 190 0.0 0.9 0.00 0.00 0.00 69 1014.5
20260509205005 60 219 0.0 0.0 0.00 0.00 0.00 68 1014.4
20260509204043 60 219 0.0 0.0 0.00 0.00 0.00 66 1014.4
20260509203029 60 172 0.0 0.0 0.00 0.00 0.00 66 1014.4
20260509202021 60 174 0.9 1.7 0.00 0.00 0.00 66 1014.3
20260509201028 60 184 0.0 1.7 0.00 0.00 0.00 66 1014.3
20260509201021 61 184 0.0 1.7 0.00 0.00 0.00 66 1014.1
20260509200047 61 207 0.0 0.0 0.00 0.00 0.00 66 1014.1
20260509200038 61 207 0.0 0.0 0.00 0.00 0.00 65 1014.1
20260509195028 61 200 0.0 1.7 0.00 0.00 0.00 65 1014.1
20260509195022 61 200 0.0 1.7 0.00 0.00 0.00 64 1014.0
20260509194044 61 200 0.9 1.7 0.00 0.00 0.00 64 1014.0
20260509194035 62 200 0.9 1.7 0.00 0.00 0.00 62 1013.9
20260509193048 62 174 0.0 0.9 0.00 0.00 0.00 62 1013.9
20260509193041 63 174 0.0 0.9 0.00 0.00 0.00 60 1013.8
20260509192050 63 182 0.0 0.9 0.00 0.00 0.00 60 1013.8
20260509192043 64 182 0.0 0.9 0.00 0.00 0.00 58 1013.7
20260509191029 64 169 0.0 0.9 0.00 0.00 0.00 58 1013.7
20260509190043 66 174 0.0 1.7 0.00 0.00 0.00 55 1013.6
20260509190037 68 174 0.0 1.7 0.00 0.00 0.00 51 1013.5
20260509185028 68 174 0.9 0.9 0.00 0.00 0.00 51 1013.5
20260509185019 69 84 1.7 3.5 0.00 0.00 0.00 44 1013.4
20260509184046 69 84 1.7 3.5 0.00 0.00 0.00 44 1013.4
20260509184039 70 84 1.7 3.5 0.00 0.00 0.00 44 1013.2
20260509183049 70 99 0.9 2.6 0.00 0.00 0.00 44 1013.2
20260509183041 70 99 0.9 2.6 0.00 0.00 0.00 42 1013.1
20260509182013 70 75 0.9 3.5 0.00 0.00 0.00 42 1013.2
20260509181035 70 75 0.9 3.5 0.00 0.00 0.00 42 1013.2
20260509181026 70 75 0.9 3.5 0.00 0.00 0.00 44 1013.2
20260509175044 70 110 0.9 3.5 0.00 0.00 0.00 44 1013.1
20260509175039 71 110 0.9 3.5 0.00 0.00 0.00 42 1013.2
20260509174038 71 109 0.9 3.5 0.00 0.00 0.00 42 1013.2
20260509174030 71 109 0.9 3.5 0.00 0.00 0.00 40 1013.2
20260509173030 71 76 1.7 4.3 0.00 0.00 0.00 40 1013.2
20260509173028 72 76 1.7 4.3 0.00 0.00 0.00 40 1012.9
20260509172006 72 69 1.7 5.2 0.00 0.00 0.00 40 1012.9
20260509171045 72 69 1.7 5.2 0.00 0.00 0.00 39 1013.0
20260509171038 72 69 1.7 5.2 0.00 0.00 0.00 38 1013.2
20260509170021 72 22 0.9 3.5 0.00 0.00 0.00 38 1013.2
20260509170016 73 55 2.6 6.1 0.00 0.00 0.00 38 1013.1
20260509165041 73 55 2.6 6.1 0.00 0.00 0.00 38 1013.1
20260509165033 73 55 2.6 6.1 0.00 0.00 0.00 37 1013.1
20260509164007 73 61 1.7 5.2 0.00 0.00 0.00 37 1013.1
20260509163110 73 61 1.7 5.2 0.00 0.00 0.00 37 1013.1
20260509163108 73 61 1.7 5.2 0.00 0.00 0.00 39 1013.0
20260509162047 73 89 1.7 4.3 0.00 0.00 0.00 39 1013.0
20260509162041 73 89 1.7 4.3 0.00 0.00 0.00 39 1013.1
20260509161016 73 86 1.7 6.1 0.00 0.00 0.00 39 1013.1
20260509161014 72 51 1.7 4.3 0.00 0.00 0.00 38 1013.3
20260509160046 72 51 1.7 4.3 0.00 0.00 0.00 38 1013.3
20260509160040 73 51 1.7 4.3 0.00 0.00 0.00 38 1013.4
20260509155043 74 89 1.7 5.2 0.00 0.00 0.00 38 1013.4
20260509154008 74 77 2.6 6.1 0.00 0.00 0.00 38 1013.4
20260509153020 72 77 2.6 6.1 0.00 0.00 0.00 37 1013.5
20260509153015 73 42 2.6 6.1 0.00 0.00 0.00 36 1013.6
20260509152048 73 42 2.6 6.1 0.00 0.00 0.00 38 1013.8
20260509151013 73 67 2.6 6.1 0.00 0.00 0.00 38 1013.8
20260509145042 72 79 1.7 6.1 0.00 0.00 0.00 38 1014.0
20260509145036 72 79 1.7 6.1 0.00 0.00 0.00 37 1014.0
20260509144019 72 54 1.7 5.2 0.00 0.00 0.00 37 1014.0
20260509143008 72 98 2.6 6.1 0.00 0.00 0.00 37 1014.3
20260509141040 72 73 2.6 7.0 0.00 0.00 0.00 36 1014.4
20260509140005 73 74 2.6 6.1 0.00 0.00 0.00 37 1014.4
20260509135008 73 117 1.7 5.2 0.00 0.00 0.00 36 1014.6
20260509134036 73 117 1.7 5.2 0.00 0.00 0.00 36 1014.6
20260509134029 72 117 1.7 5.2 0.00 0.00 0.00 38 1014.7
20260509133016 72 75 1.7 5.2 0.00 0.00 0.00 38 1014.7
20260509132042 72 75 1.7 5.2 0.00 0.00 0.00 38 1014.8
20260509132036 72 75 1.7 5.2 0.00 0.00 0.00 37 1014.9
20260509131039 71 84 2.6 4.3 0.00 0.00 0.00 38 1015.0
20260509130041 72 78 1.7 6.1 0.00 0.00 0.00 39 1015.1
20260509125029 72 95 2.6 6.1 0.00 0.00 0.00 39 1015.1
20260509125021 71 95 2.6 6.1 0.00 0.00 0.00 41 1015.2
20260509124038 71 63 2.6 5.2 0.00 0.00 0.00 41 1015.3
20260509123040 71 63 2.6 6.1 0.00 0.00 0.00 41 1015.3
20260509123033 70 63 2.6 6.1 0.00 0.00 0.00 42 1015.5
20260509122007 70 74 1.7 7.0 0.00 0.00 0.00 41 1015.6
20260509121053 70 74 1.7 7.0 0.00 0.00 0.00 41 1015.6
20260509121050 70 74 1.7 7.0 0.00 0.00 0.00 42 1015.7
20260509120047 70 32 2.6 6.1 0.00 0.00 0.00 42 1015.7
20260509120042 69 32 2.6 6.1 0.00 0.00 0.00 45 1015.9
20260509115043 69 58 1.7 5.2 0.00 0.00 0.00 45 1015.9
20260509115034 69 58 1.7 5.2 0.00 0.00 0.00 45 1016.0
20260509114040 69 65 2.6 4.3 0.00 0.00 0.00 45 1016.0
20260509114034 69 65 2.6 4.3 0.00 0.00 0.00 43 1016.2
20260509113046 69 87 2.6 6.1 0.00 0.00 0.00 43 1016.2
20260509113041 69 87 2.6 6.1 0.00 0.00 0.00 45 1016.2
20260509112012 69 86 2.6 6.1 0.00 0.00 0.00 45 1016.2
20260509111004 68 69 2.6 6.1 0.00 0.00 0.00 47 1016.4
20260509110046 68 69 2.6 6.1 0.00 0.00 0.00 47 1016.5
20260509110042 68 69 2.6 6.1 0.00 0.00 0.00 49 1016.6
20260509105021 68 81 2.6 6.1 0.00 0.00 0.00 49 1016.6
20260509105017 68 81 2.6 6.1 0.00 0.00 0.00 50 1016.7
20260509104015 68 85 1.7 4.3 0.00 0.00 0.00 50 1016.7
20260509104013 67 85 1.7 4.3 0.00 0.00 0.00 51 1016.8
20260509103029 67 85 1.7 4.3 0.00 0.00 0.00 51 1017.0
20260509102044 67 67 3.5 7.0 0.00 0.00 0.00 51 1017.0
20260509102040 66 67 3.5 7.0 0.00 0.00 0.00 54 1017.1
20260509101046 65 56 1.7 5.2 0.00 0.00 0.00 54 1017.2
20260509100040 65 71 1.7 7.0 0.00 0.00 0.00 54 1017.2
20260509100033 65 71 1.7 7.0 0.00 0.00 0.00 54 1017.3
20260509095043 65 60 2.6 6.1 0.00 0.00 0.00 54 1017.3
20260509095037 64 60 2.6 6.1 0.00 0.00 0.00 55 1017.4
20260509094026 63 37 1.7 5.2 0.00 0.00 0.00 59 1017.6
20260509092045 63 94 1.7 4.3 0.00 0.00 0.00 59 1017.6
20260509092040 62 94 1.7 4.3 0.00 0.00 0.00 61 1017.7
20260509091040 60 14 0.9 3.5 0.00 0.00 0.00 63 1017.9
20260509085005 60 61 2.6 5.2 0.00 0.00 0.00 63 1017.9
20260509084013 59 31 1.7 3.5 0.00 0.00 0.00 64 1018.2
20260509083041 59 31 1.7 3.5 0.00 0.00 0.00 64 1018.2
20260509083036 58 31 1.7 3.5 0.00 0.00 0.00 65 1018.4
20260509082042 58 56 1.7 4.3 0.00 0.00 0.00 65 1018.4
20260509082035 57 56 1.7 4.3 0.00 0.00 0.00 66 1018.4
20260509081027 57 73 1.7 4.3 0.00 0.00 0.00 66 1018.4
20260509081022 57 73 1.7 4.3 0.00 0.00 0.00 67 1018.4
20260509080045 57 57 2.6 5.2 0.00 0.00 0.00 67 1018.4
20260509080039 56 57 2.6 5.2 0.00 0.00 0.00 67 1018.4
20260509075009 56 52 1.7 5.2 0.00 0.00 0.00 67 1018.4
20260509074045 56 52 1.7 5.2 0.00 0.00 0.00 68 1018.5
20260509074040 55 52 1.7 5.2 0.00 0.00 0.00 68 1018.5
20260509073017 55 63 1.7 4.3 0.00 0.00 0.00 68 1018.5
20260509073015 55 63 1.7 4.3 0.00 0.00 0.00 69 1018.5
20260509072020 55 41 1.7 4.3 0.00 0.00 0.00 69 1018.5
20260509072016 54 41 1.7 4.3 0.00 0.00 0.00 70 1018.6
20260509071039 54 41 1.7 4.3 0.00 0.00 0.00 70 1018.6
20260509071032 54 41 1.7 4.3 0.00 0.00 0.00 70 1018.6
20260509070013 54 67 1.7 2.6 0.00 0.00 0.00 70 1018.6